Location: Newark
(49.3667°N, 21.6167°E)
Time: 03:11:46
(UTC+00:00)

Envisat - Pass Details

Date: 14 December 2019
Orbit: 764 x 766 km, 98.1° (Epoch: 23 January)

Event Time Altitude Azimuth Distance (km) Brightness Sun altitude
Rises 15:09:36 0° 129° (SE) 3,226 6.0 -5.6°
Reaches altitude 10° 15:12:12 10° 117° (ESE) 2,304 5.2 -6.0°
Maximum altitude 15:16:22 26° 62° (ENE) 1,465 3.9 -6.6°
Drops below altitude 10° 15:20:33 10° 6° (N) 2,317 5.2 -7.2°
Sets 15:23:10 0° 355° (N) 3,247 6.0 -7.6°
